"read_dt","SO2 (ppb)","flags","PMT voltage (V)","lamp voltage (V)","lamp intensity (Hz)","internal temp (C)","react chamber temp (C)","sample flow (l/min)","pres (mmHg)","SO2 bkg (ppb)","SO2 coefficient"
2013-09-07 00:00:00,1407E-4,5C000000,-0724,0937,11271,026.7,045.3,0.389,724.4,01.19,0.508
2013-09-07 00:01:00,1513E-4,5C000000,-0724,0937,11202,026.7,045.3,0.389,724.5,01.19,0.508
2013-09-07 00:02:00,9463E-5,5C000000,-0724,0938,11197,026.8,045.3,0.389,724.4,01.19,0.508
2013-09-07 00:03:00,1453E-4,5C000000,-0724,0937,11024,026.7,045.3,0.389,724.4,01.19,0.508
2013-09-07 00:04:00,1374E-4,5C000000,-0724,0937,10906,026.7,045.3,0.389,724.4,01.19,0.508
2013-09-07 00:05:00,2270E-4,5C000000,-0724,0937,11198,026.7,045.3,0.389,724.4,01.19,0.508
2013-09-07 00:06:00,1099E-4,5C000000,-0724,0937,11181,026.7,045.3,0.388,724.4,01.19,0.508
2013-09-07 00:07:00,3740E-5,5C000000,-0724,0938,11071,026.8,045.3,0.389,724.4,01.19,0.508
2013-09-07 00:08:00,1444E-4,5C000000,-0724,0938,11210,026.8,045.3,0.389,724.4,01.19,0.508
2013-09-07 00:09:00,8016E-5,5C000000,-0724,0938,11096,026.8,045.3,0.389,724.4,01.19,0.508
2013-09-07 00:10:00,1392E-4,5C000000,-0724,0937,11296,026.8,045.3,0.389,724.4,01.19,0.508
2013-09-07 00:11:00,8562E-5,5C000000,-0724,0936,10972,026.8,045.3,0.388,724.4,01.19,0.508
2013-09-07 00:12:00,1985E-4,5C000000,-0724,0937,11273,026.8,045.3,0.389,724.3,01.19,0.508
2013-09-07 00:13:00,2104E-4,5C000000,-0724,0937,11141,026.8,045.3,0.389,724.4,01.19,0.508
2013-09-07 00:14:00,1229E-4,5C000000,-0724,0938,11127,026.8,045.3,0.389,724.3,01.19,0.508
2013-09-07 00:15:00,1165E-4,5C000000,-0724,0937,11288,026.8,045.3,0.389,724.3,01.19,0.508
2013-09-07 00:16:00,7037E-5,5C000000,-0724,0938,11183,026.8,045.3,0.388,724.3,01.19,0.508
2013-09-07 00:17:00,1221E-4,5C000000,-0724,0937,11070,026.8,045.3,0.389,724.4,01.19,0.508
2013-09-07 00:18:00,1529E-4,5C000000,-0724,0937,11202,026.8,045.3,0.388,724.3,01.19,0.508
2013-09-07 00:19:00,2376E-4,5C000000,-0724,0938,11156,026.8,045.3,0.389,724.3,01.19,0.508
2013-09-07 00:20:00,1280E-4,5C000000,-0724,0938,11143,026.8,045.3,0.389,724.3,01.19,0.508
2013-09-07 00:21:00,2053E-4,5C000000,-0724,0938,11148,026.8,045.3,0.388,724.3,01.19,0.508
2013-09-07 00:22:00,1672E-4,5C000000,-0724,0937,11217,026.8,045.3,0.389,724.3,01.19,0.508
2013-09-07 00:23:00,1337E-4,5C000000,-0724,0937,11161,026.8,045.3,0.388,724.3,01.19,0.508
2013-09-07 00:24:00,1418E-4,5C000000,-0724,0937,11140,026.8,045.3,0.389,724.3,01.19,0.508
2013-09-07 00:25:00,1057E-4,5C000000,-0724,0936,11226,026.8,045.3,0.388,724.3,01.19,0.508
2013-09-07 00:26:00,1687E-4,5C000000,-0724,0937,11091,026.8,045.3,0.389,724.3,01.19,0.508
2013-09-07 00:27:00,2130E-4,5C000000,-0724,0937,11225,026.8,045.3,0.388,724.3,01.19,0.508
2013-09-07 00:28:00,2318E-4,5C000000,-0724,0937,11313,026.8,045.3,0.388,724.3,01.19,0.508
2013-09-07 00:29:00,1694E-4,5C000000,-0724,0938,11149,026.8,045.3,0.389,724.3,01.19,0.508
2013-09-07 00:30:00,1600E-4,5C000000,-0724,0937,10925,026.8,045.3,0.388,724.3,01.19,0.508
2013-09-07 00:31:00,1887E-4,5C000000,-0724,0937,11152,026.8,045.3,0.389,724.3,01.19,0.508
2013-09-07 00:32:00,1671E-4,5C000000,-0724,0937,11098,026.8,045.3,0.388,724.3,01.19,0.508
2013-09-07 00:33:00,1410E-4,5C000000,-0724,0937,11187,026.8,045.3,0.389,724.2,01.19,0.508
2013-09-07 00:34:00,2030E-4,5C000000,-0724,0937,11156,026.8,045.3,0.388,724.2,01.19,0.508
2013-09-07 00:35:00,-4891E-6,5C000000,-0724,0937,11153,026.8,045.3,0.389,724.2,01.19,0.508
2013-09-07 00:36:00,1026E-4,5C000000,-0724,0936,11137,026.8,045.3,0.388,724.2,01.19,0.508
2013-09-07 00:37:00,1776E-4,5C000000,-0724,0937,11038,026.8,045.3,0.389,724.2,01.19,0.508
2013-09-07 00:38:00,7733E-5,5C000000,-0724,0937,11159,026.8,045.3,0.388,724.2,01.19,0.508
2013-09-07 00:39:00,5904E-5,5C000000,-0724,0937,11120,026.8,045.3,0.389,724.2,01.19,0.508
2013-09-07 00:40:00,2373E-4,5C000000,-0724,0937,11064,026.8,045.3,0.389,724.2,01.19,0.508
2013-09-07 00:41:00,2082E-4,5C000000,-0724,0937,11148,026.8,045.3,0.389,724.2,01.19,0.508
2013-09-07 00:42:00,1796E-4,5C000000,-0724,0937,11145,026.7,045.3,0.389,724.2,01.19,0.508
2013-09-07 00:43:00,1241E-4,5C000000,-0724,0937,11212,026.7,045.3,0.389,724.2,01.19,0.508
2013-09-07 00:44:00,1284E-4,5C000000,-0724,0937,11148,026.8,045.3,0.389,724.2,01.19,0.508
2013-09-07 00:45:00,2098E-4,5C000000,-0724,0938,11205,026.7,045.3,0.389,724.2,01.19,0.508
2013-09-07 00:46:00,1684E-4,5C000000,-0724,0937,11135,026.7,045.3,0.389,724.2,01.19,0.508
2013-09-07 00:47:00,1020E-4,5C000000,-0724,0937,10989,026.7,045.3,0.389,724.2,01.19,0.508
2013-09-07 00:48:00,9850E-5,5C000000,-0724,0937,11210,026.8,045.3,0.389,724.2,01.19,0.508
2013-09-07 00:49:00,1349E-5,5C000000,-0724,0937,10985,026.7,045.3,0.389,724.2,01.19,0.508
2013-09-07 00:50:00,1562E-4,5C000000,-0724,0937,11067,026.7,045.3,0.389,724.2,01.19,0.508
2013-09-07 00:51:00,2273E-4,5C000000,-0724,0938,11138,026.7,045.3,0.389,724.2,01.19,0.508
2013-09-07 00:52:00,7507E-5,5C000000,-0724,0938,11199,026.7,045.3,0.389,724.2,01.19,0.508
2013-09-07 00:53:00,1057E-4,5C000000,-0724,0937,11200,026.7,045.3,0.389,724.1,01.20,0.508
2013-09-07 00:54:00,1662E-4,5C000000,-0724,0938,11077,026.7,045.3,0.389,724.1,01.20,0.508
2013-09-07 00:55:00,8471E-5,5C000000,-0724,0937,11108,026.7,045.3,0.389,724.1,01.20,0.508
2013-09-07 00:56:00,6329E-5,5C000000,-0724,0938,10991,026.7,045.3,0.389,724.1,01.20,0.508
2013-09-07 00:57:00,2218E-4,5C000000,-0724,0938,11062,026.7,045.3,0.389,724.1,01.20,0.508
2013-09-07 00:58:00,1750E-4,5C000000,-0724,0938,11183,026.7,045.3,0.389,724.1,01.20,0.508
2013-09-07 00:59:00,7359E-5,5C000000,-0724,0937,11082,026.8,045.3,0.389,724.1,01.20,0.508
2013-09-07 01:00:00,1387E-4,5C000000,-0724,0936,11125,026.8,045.3,0.388,724.1,01.20,0.508
2013-09-07 01:01:00,1375E-4,5C000000,-0724,0938,11175,026.8,045.3,0.389,724.1,01.20,0.508
2013-09-07 01:02:00,1795E-4,5C000000,-0724,0937,11175,026.8,045.3,0.389,724.1,01.20,0.508
2013-09-07 01:03:00,2450E-4,5C000000,-0724,0938,11160,026.8,045.3,0.388,724.1,01.20,0.508
2013-09-07 01:04:00,1745E-4,5C000000,-0724,0937,11098,026.8,045.3,0.389,724.1,01.20,0.508
2013-09-07 01:05:00,1225E-4,5C000000,-0724,0937,11074,026.8,045.3,0.389,724.1,01.20,0.508
2013-09-07 01:06:00,1070E-4,5C000000,-0724,0938,11264,026.8,045.3,0.388,724.1,01.20,0.508
2013-09-07 01:07:00,1882E-4,5C000000,-0724,0937,11054,026.8,045.3,0.389,724.1,01.20,0.508
2013-09-07 01:08:00,7245E-5,5C000000,-0724,0938,11380,026.8,045.3,0.389,724.1,01.20,0.508
2013-09-07 01:09:00,1388E-4,5C000000,-0724,0937,11000,026.8,045.3,0.388,724.1,01.20,0.508
2013-09-07 01:10:00,1495E-4,5C000000,-0724,0937,11223,026.8,045.3,0.388,724.0,01.20,0.508
2013-09-07 01:11:00,2109E-4,5C000000,-0724,0938,11130,026.8,045.3,0.389,724.0,01.20,0.508
2013-09-07 01:12:00,1126E-4,5C000000,-0724,0938,11208,026.8,045.3,0.388,724.0,01.20,0.508
2013-09-07 01:13:00,1301E-4,5C000000,-0724,0936,11166,026.8,045.3,0.389,724.0,01.20,0.508
2013-09-07 01:14:00,9470E-5,5C000000,-0724,0937,11178,026.9,045.3,0.389,724.0,01.20,0.508
2013-09-07 01:15:00,1293E-4,5C000000,-0724,0938,11204,026.8,045.3,0.388,724.1,01.20,0.508
2013-09-07 01:16:00,1673E-4,5C000000,-0724,0937,11039,026.8,045.3,0.389,724.1,01.20,0.508
2013-09-07 01:17:00,2156E-4,5C000000,-0724,0937,11077,026.8,045.3,0.388,724.0,01.20,0.508
2013-09-07 01:18:00,1302E-4,5C000000,-0724,0937,11165,026.8,045.3,0.388,724.1,01.20,0.508
2013-09-07 01:19:00,1511E-4,5C000000,-0724,0937,10966,026.8,045.3,0.389,724.1,01.20,0.508
2013-09-07 01:20:00,1627E-4,5C000000,-0724,0937,11180,026.8,045.3,0.388,724.1,01.20,0.508
2013-09-07 01:21:00,1917E-4,5C000000,-0724,0937,11082,026.8,045.3,0.389,724.1,01.20,0.508
2013-09-07 01:22:00,9980E-5,5C000000,-0724,0937,11257,026.8,045.4,0.388,724.1,01.20,0.508
2013-09-07 01:23:00,1266E-4,5C000000,-0724,0938,11258,026.8,045.3,0.389,724.1,01.20,0.508
2013-09-07 01:24:00,1633E-4,5C000000,-0724,0937,11106,026.8,045.3,0.388,724.1,01.20,0.508
2013-09-07 01:25:00,6215E-5,5C000000,-0724,0938,10916,026.8,045.3,0.388,724.1,01.20,0.508
2013-09-07 01:26:00,5015E-5,5C000000,-0724,0937,11105,026.8,045.3,0.389,724.1,01.20,0.508
2013-09-07 01:27:00,1429E-4,5C000000,-0724,0938,11254,026.8,045.3,0.388,724.1,01.20,0.508
2013-09-07 01:28:00,1005E-4,5C000000,-0724,0937,11197,026.8,045.3,0.389,724.0,01.20,0.508
2013-09-07 01:29:00,9388E-5,5C000000,-0724,0936,11249,026.8,045.3,0.388,724.1,01.20,0.508
2013-09-07 01:30:00,1253E-4,5C000000,-0724,0937,11267,026.8,045.3,0.388,724.1,01.20,0.508
2013-09-07 01:31:00,1419E-4,5C000000,-0724,0936,11203,026.9,045.3,0.389,724.1,01.20,0.508
2013-09-07 01:32:00,9746E-5,5C000000,-0724,0938,11150,026.8,045.3,0.388,724.1,01.20,0.508
2013-09-07 01:33:00,2126E-4,5C000000,-0724,0938,11165,026.8,045.3,0.389,724.1,01.20,0.508
2013-09-07 01:34:00,1593E-4,5C000000,-0724,0938,11261,026.9,045.3,0.388,724.1,01.20,0.508
2013-09-07 01:35:00,8508E-5,5C000000,-0724,0938,11079,026.8,045.3,0.389,724.1,01.20,0.508
2013-09-07 01:36:00,8329E-5,5C000000,-0724,0937,11077,026.8,045.3,0.388,724.1,01.20,0.508
2013-09-07 01:37:00,7957E-5,5C000000,-0724,0937,10827,026.8,045.3,0.388,724.1,01.20,0.508
2013-09-07 01:38:00,2083E-4,5C000000,-0724,0938,10996,026.8,045.3,0.389,724.1,01.20,0.508
2013-09-07 01:39:00,9234E-5,5C000000,-0724,0937,11138,026.8,045.3,0.388,724.0,01.20,0.508
2013-09-07 01:40:00,1792E-4,5C000000,-0724,0938,11185,026.8,045.3,0.389,724.1,01.20,0.508
2013-09-07 01:41:00,1265E-4,5C000000,-0724,0938,11017,026.8,045.3,0.388,724.1,01.20,0.508
2013-09-07 01:42:00,9110E-5,5C000000,-0724,0937,11249,026.8,045.3,0.389,724.0,01.20,0.508
2013-09-07 01:43:00,1759E-4,5C000000,-0724,0936,11074,026.8,045.3,0.388,724.1,01.20,0.508
2013-09-07 01:44:00,1494E-4,5C000000,-0724,0936,11220,026.8,045.3,0.389,724.1,01.20,0.508
2013-09-07 01:45:00,1746E-4,5C000000,-0724,0937,11145,026.8,045.3,0.388,724.1,01.20,0.508
2013-09-07 01:46:00,2381E-4,5C000000,-0724,0936,11090,026.8,045.3,0.388,724.0,01.20,0.508
2013-09-07 01:47:00,4903E-5,5C000000,-0724,0938,11102,026.8,045.3,0.389,724.0,01.20,0.508
2013-09-07 01:48:00,1255E-4,5C000000,-0724,0937,11038,026.8,045.3,0.388,724.0,01.20,0.508
2013-09-07 01:49:00,1917E-4,5C000000,-0724,0938,11082,026.8,045.3,0.389,724.0,01.20,0.508
2013-09-07 01:50:00,6866E-5,5C000000,-0724,0937,11038,026.8,045.3,0.388,724.0,01.20,0.508
2013-09-07 01:51:00,1095E-4,5C000000,-0724,0937,11260,026.8,045.3,0.389,724.0,01.20,0.508
2013-09-07 01:52:00,1652E-4,5C000000,-0724,0937,11110,026.8,045.3,0.388,724.0,01.20,0.508
2013-09-07 01:53:00,2240E-4,5C000000,-0724,0937,11148,026.8,045.3,0.389,724.0,01.20,0.508
2013-09-07 01:54:00,1524E-4,5C000000,-0724,0938,11145,026.8,045.3,0.388,724.0,01.20,0.508
2013-09-07 01:55:00,9327E-5,5C000000,-0724,0938,11036,026.8,045.3,0.389,723.9,01.20,0.508
2013-09-07 01:56:00,4601E-5,5C000000,-0724,0937,11193,026.8,045.3,0.388,723.9,01.20,0.508
2013-09-07 01:57:00,1393E-4,5C000000,-0724,0937,11168,026.7,045.3,0.389,723.9,01.20,0.508
2013-09-07 01:58:00,1246E-4,5C000000,-0724,0939,11207,026.8,045.3,0.388,723.9,01.20,0.508
2013-09-07 01:59:00,1170E-4,5C000000,-0724,0937,11200,026.8,045.3,0.389,723.9,01.20,0.508
2013-09-07 02:00:00,1833E-4,5C000000,-0724,0938,11068,026.7,045.3,0.388,723.9,01.20,0.508
2013-09-07 02:01:00,1655E-4,5C000000,-0724,0937,11123,026.7,045.3,0.389,723.9,01.20,0.508
2013-09-07 02:02:00,1389E-4,5C000000,-0724,0937,11013,026.7,045.3,0.389,723.9,01.20,0.508
2013-09-07 02:03:00,1052E-4,5C000000,-0724,0937,11045,026.7,045.3,0.389,723.9,01.20,0.508
2013-09-07 02:04:00,8862E-5,5C000000,-0724,0937,10999,026.7,045.3,0.389,723.9,01.20,0.508
2013-09-07 02:05:00,4028E-5,5C000000,-0724,0937,11210,026.7,045.3,0.389,723.9,01.20,0.508
2013-09-07 02:06:00,1443E-4,5C000000,-0724,0938,10999,026.7,045.3,0.389,723.9,01.20,0.508
2013-09-07 02:07:00,1894E-4,5C000000,-0724,0938,11259,026.7,045.3,0.389,723.9,01.20,0.508
2013-09-07 02:08:00,5610E-5,5C000000,-0724,0938,11062,026.7,045.3,0.389,723.8,01.20,0.508
2013-09-07 02:09:00,1456E-4,5C000000,-0724,0938,11198,026.7,045.3,0.389,723.8,01.20,0.508
2013-09-07 02:10:00,8526E-5,5C000000,-0724,0937,10997,026.7,045.3,0.389,723.9,01.20,0.508
2013-09-07 02:11:00,1837E-4,5C000000,-0724,0938,11175,026.8,045.3,0.389,723.8,01.20,0.508
2013-09-07 02:12:00,1571E-4,5C000000,-0724,0937,11187,026.8,045.3,0.388,723.8,01.20,0.508
2013-09-07 02:13:00,1461E-4,5C000000,-0724,0938,11184,026.8,045.3,0.388,723.8,01.20,0.508
2013-09-07 02:14:00,1506E-4,5C000000,-0724,0938,11053,026.8,045.3,0.389,723.9,01.20,0.508
2013-09-07 02:15:00,5725E-5,5C000000,-0724,0937,11098,026.8,045.3,0.388,723.8,01.20,0.508
2013-09-07 02:16:00,1874E-4,5C000000,-0724,0938,11094,026.9,045.3,0.388,723.8,01.20,0.508
2013-09-07 02:17:00,1181E-4,5C000000,-0724,0937,11100,026.9,045.3,0.389,723.8,01.20,0.508
2013-09-07 02:18:00,1670E-4,5C000000,-0724,0937,11121,026.9,045.3,0.388,723.8,01.20,0.508
2013-09-07 02:19:00,1059E-4,5C000000,-0724,0938,11252,026.9,045.3,0.388,723.8,01.20,0.508
2013-09-07 02:20:00,1335E-4,5C000000,-0724,0938,11209,026.9,045.3,0.388,723.8,01.20,0.508
2013-09-07 02:21:00,1739E-4,5C000000,-0724,0937,11201,026.9,045.3,0.388,723.8,01.20,0.508
2013-09-07 02:22:00,1276E-4,5C000000,-0724,0938,11177,026.9,045.3,0.388,723.8,01.20,0.508
2013-09-07 02:23:00,1089E-4,5C000000,-0724,0938,11140,026.8,045.3,0.388,723.8,01.20,0.508
2013-09-07 02:24:00,1035E-4,5C000000,-0724,0937,11037,026.9,045.3,0.389,723.8,01.20,0.508
2013-09-07 02:25:00,1180E-4,5C000000,-0724,0938,11055,026.9,045.3,0.388,723.8,01.20,0.508
2013-09-07 02:26:00,8545E-5,5C000000,-0724,0937,11261,026.9,045.3,0.388,723.8,01.20,0.508
2013-09-07 02:27:00,1151E-4,5C000000,-0724,0937,11190,026.8,045.3,0.388,723.8,01.20,0.508
2013-09-07 02:28:00,1544E-4,5C000000,-0724,0937,11092,026.8,045.3,0.388,723.8,01.20,0.508
2013-09-07 02:29:00,1011E-4,5C000000,-0724,0938,11084,026.8,045.3,0.389,723.8,01.20,0.508
2013-09-07 02:30:00,2112E-4,5C000000,-0724,0938,10923,026.8,045.3,0.388,723.7,01.20,0.508
2013-09-07 02:31:00,1471E-4,5C000000,-0724,0938,10998,026.8,045.3,0.388,723.8,01.20,0.508
2013-09-07 02:32:00,1699E-4,5C000000,-0724,0938,11053,026.8,045.3,0.389,723.7,01.20,0.508
2013-09-07 02:33:00,1037E-4,5C000000,-0724,0938,11249,026.8,045.3,0.388,723.7,01.20,0.508
2013-09-07 02:34:00,1424E-4,5C000000,-0724,0939,11167,026.8,045.3,0.388,723.7,01.20,0.508
2013-09-07 02:35:00,1588E-4,5C000000,-0724,0938,11164,026.8,045.3,0.388,723.7,01.20,0.508
2013-09-07 02:36:00,1478E-4,5C000000,-0724,0937,11008,026.8,045.3,0.388,723.7,01.20,0.508
2013-09-07 02:37:00,1690E-4,5C000000,-0724,0938,11139,026.8,045.3,0.389,723.7,01.20,0.508
2013-09-07 02:38:00,9633E-5,5C000000,-0724,0937,11072,026.8,045.3,0.388,723.7,01.20,0.508
2013-09-07 02:39:00,1653E-4,5C000000,-0724,0938,11192,026.8,045.3,0.388,723.7,01.20,0.508
2013-09-07 02:40:00,1709E-4,5C000000,-0724,0938,11282,026.8,045.3,0.389,723.7,01.20,0.508
2013-09-07 02:41:00,1254E-4,5C000000,-0724,0938,11111,026.8,045.3,0.388,723.7,01.20,0.508
2013-09-07 02:42:00,8327E-5,5C000000,-0724,0937,11088,026.8,045.3,0.389,723.7,01.20,0.508
2013-09-07 02:43:00,8154E-5,5C000000,-0724,0938,11306,026.8,045.3,0.388,723.6,01.20,0.508
2013-09-07 02:44:00,2292E-4,5C000000,-0724,0936,11265,026.8,045.3,0.388,723.7,01.20,0.508
2013-09-07 02:45:00,1717E-4,5C000000,-0724,0936,11084,026.8,045.3,0.389,723.7,01.20,0.508
2013-09-07 02:46:00,1229E-4,5C000000,-0724,0937,11134,026.8,045.3,0.388,723.7,01.20,0.508
2013-09-07 02:47:00,6106E-5,5C000000,-0724,0937,11221,026.8,045.3,0.389,723.6,01.20,0.508
2013-09-07 02:48:00,7196E-5,5C000000,-0724,0937,11163,026.8,045.3,0.388,723.6,01.20,0.508
2013-09-07 02:49:00,2609E-5,5C000000,-0724,0938,10973,026.8,045.3,0.388,723.7,01.20,0.508
2013-09-07 02:50:00,7231E-5,5C000000,-0724,0937,11249,026.8,045.3,0.389,723.6,01.20,0.508
2013-09-07 02:51:00,6891E-5,5C000000,-0724,0938,11065,026.8,045.3,0.388,723.7,01.20,0.508
2013-09-07 02:52:00,1059E-4,5C000000,-0724,0937,11129,026.8,045.3,0.389,723.7,01.20,0.508
2013-09-07 02:53:00,1876E-4,5C000000,-0724,0937,11390,026.8,045.3,0.388,723.7,01.20,0.508
2013-09-07 02:54:00,1401E-4,5C000000,-0724,0937,11158,026.8,045.3,0.388,723.6,01.20,0.508
2013-09-07 02:55:00,1210E-4,5C000000,-0724,0937,11173,026.8,045.3,0.389,723.7,01.20,0.508
2013-09-07 02:56:00,1520E-4,5C000000,-0724,0938,11256,026.8,045.3,0.388,723.7,01.20,0.508
2013-09-07 02:57:00,1404E-4,5C000000,-0724,0937,11126,026.8,045.3,0.389,723.7,01.20,0.508
2013-09-07 02:58:00,1586E-4,5C000000,-0724,0937,11015,026.8,045.3,0.388,723.7,01.20,0.508
2013-09-07 02:59:00,1784E-4,5C000000,-0724,0937,11137,026.8,045.3,0.388,723.7,01.20,0.508
2013-09-07 03:00:00,2110E-4,5C000000,-0724,0937,11253,026.8,045.3,0.389,723.7,01.20,0.508
2013-09-07 03:01:00,1267E-4,5C000000,-0724,0937,11151,026.8,045.3,0.388,723.7,01.20,0.508
2013-09-07 03:02:00,1354E-4,5C000000,-0724,0936,11071,026.8,045.3,0.389,723.7,01.20,0.508
2013-09-07 03:03:00,1564E-4,5C000000,-0724,0937,11206,026.8,045.3,0.388,723.7,01.20,0.508
2013-09-07 03:04:00,3949E-5,5C000000,-0724,0937,11306,026.8,045.3,0.388,723.7,01.20,0.508
2013-09-07 03:05:00,4915E-5,5C000000,-0724,0939,11174,026.8,045.3,0.389,723.7,01.20,0.508
2013-09-07 03:06:00,1272E-4,5C000000,-0724,0938,11213,026.8,045.3,0.388,723.7,01.20,0.508
2013-09-07 03:07:00,3825E-5,5C000000,-0724,0937,11249,026.8,045.3,0.389,723.7,01.20,0.508
2013-09-07 03:08:00,1056E-4,5C000000,-0724,0938,11283,026.8,045.3,0.388,723.7,01.20,0.508
2013-09-07 03:09:00,1382E-4,5C000000,-0724,0938,11083,026.8,045.3,0.388,723.7,01.20,0.508
2013-09-07 03:10:00,9229E-5,5C000000,-0724,0938,11121,026.8,045.3,0.389,723.7,01.20,0.508
2013-09-07 03:11:00,1567E-4,5C000000,-0724,0937,11060,026.8,045.3,0.388,723.7,01.20,0.508
2013-09-07 03:12:00,1781E-4,5C000000,-0724,0937,10858,026.8,045.3,0.389,723.7,01.20,0.508
2013-09-07 03:13:00,9260E-5,5C000000,-0724,0937,11160,026.8,045.3,0.388,723.6,01.20,0.508
2013-09-07 03:14:00,1643E-4,5C000000,-0724,0937,11131,026.8,045.3,0.388,723.6,01.20,0.508
2013-09-07 03:15:00,9051E-5,5C000000,-0724,0937,11171,026.8,045.3,0.389,723.6,01.20,0.508
2013-09-07 03:16:00,6551E-5,5C000000,-0724,0937,10945,026.8,045.3,0.388,723.6,01.20,0.508
2013-09-07 03:17:00,1180E-4,5C000000,-0724,0937,11174,026.8,045.3,0.388,723.6,01.20,0.508
2013-09-07 03:18:00,2445E-4,5C000000,-0724,0937,11310,026.8,045.3,0.388,723.6,01.20,0.508
2013-09-07 03:19:00,1194E-4,5C000000,-0724,0937,11285,026.8,045.3,0.388,723.6,01.20,0.508
2013-09-07 03:20:00,1447E-4,5C000000,-0724,0937,10874,026.8,045.3,0.389,723.6,01.20,0.508
2013-09-07 03:21:00,1679E-4,5C000000,-0724,0938,11096,026.8,045.3,0.388,723.6,01.20,0.508
2013-09-07 03:22:00,4458E-5,5C000000,-0724,0938,11057,026.8,045.3,0.389,723.6,01.20,0.508
2013-09-07 03:23:00,1001E-4,5C000000,-0724,0938,11122,026.8,045.3,0.388,723.6,01.20,0.508
2013-09-07 03:24:00,1267E-4,5C000000,-0724,0937,11132,026.8,045.3,0.389,723.6,01.20,0.508
2013-09-07 03:25:00,2241E-4,5C000000,-0724,0937,11073,026.8,045.3,0.388,723.6,01.20,0.508
2013-09-07 03:26:00,1783E-4,5C000000,-0724,0937,11102,026.8,045.3,0.389,723.6,01.20,0.508
2013-09-07 03:27:00,2175E-4,5C000000,-0724,0937,11286,026.8,045.3,0.389,723.6,01.20,0.508
2013-09-07 03:28:00,1290E-4,5C000000,-0724,0938,11063,026.8,045.3,0.388,723.6,01.20,0.508
2013-09-07 03:29:00,1664E-4,5C000000,-0724,0937,11073,026.8,045.3,0.389,723.6,01.20,0.508
2013-09-07 03:30:00,9624E-5,5C000000,-0724,0937,11188,026.8,045.3,0.388,723.6,01.20,0.508
2013-09-07 03:31:00,7432E-5,5C000000,-0724,0937,11282,026.8,045.3,0.388,723.7,01.20,0.508
2013-09-07 03:32:00,1563E-4,5C000000,-0724,0937,11112,026.8,045.3,0.389,723.7,01.20,0.508
2013-09-07 03:33:00,1002E-4,5C000000,-0724,0938,11126,026.8,045.3,0.388,723.7,01.20,0.508
2013-09-07 03:34:00,9835E-5,5C000000,-0724,0939,11103,026.8,045.3,0.388,723.7,01.20,0.508
2013-09-07 03:35:00,1006E-4,5C000000,-0724,0937,11241,026.8,045.3,0.389,723.7,01.20,0.508
2013-09-07 03:36:00,1740E-4,5C000000,-0724,0938,10983,026.8,045.3,0.388,723.7,01.20,0.508
2013-09-07 03:37:00,1101E-5,5C000000,-0724,0936,11181,026.8,045.3,0.389,723.7,01.20,0.508
2013-09-07 03:38:00,2334E-4,5C000000,-0724,0938,11239,026.8,045.3,0.389,723.7,01.20,0.508
2013-09-07 03:39:00,1040E-4,5C000000,-0724,0938,11136,026.8,045.3,0.388,723.7,01.20,0.508
2013-09-07 03:40:00,4677E-5,5C000000,-0724,0938,11127,026.8,045.3,0.389,723.7,01.20,0.508
2013-09-07 03:41:00,1548E-4,5C000000,-0724,0938,11199,026.8,045.3,0.388,723.7,01.20,0.508
2013-09-07 03:42:00,1151E-4,5C000000,-0724,0938,11157,026.8,045.3,0.388,723.7,01.20,0.508
2013-09-07 03:43:00,7322E-5,5C000000,-0724,0937,11197,026.8,045.3,0.389,723.7,01.20,0.508
2013-09-07 03:44:00,2031E-4,5C000000,-0724,0938,11195,026.8,045.3,0.388,723.7,01.20,0.508
2013-09-07 03:45:00,2162E-4,5C000000,-0724,0937,11226,026.8,045.3,0.389,723.7,01.20,0.508
2013-09-07 03:46:00,8482E-5,5C000000,-0724,0938,11079,026.8,045.3,0.389,723.7,01.20,0.508
2013-09-07 03:47:00,1895E-4,5C000000,-0724,0938,11087,026.8,045.3,0.388,723.7,01.20,0.508
2013-09-07 03:48:00,1393E-4,5C000000,-0724,0937,11146,026.8,045.3,0.389,723.7,01.20,0.508
2013-09-07 03:49:00,1468E-4,5C000000,-0724,0938,11163,026.8,045.3,0.388,723.7,01.20,0.508
2013-09-07 03:50:00,1691E-4,5C000000,-0724,0938,11225,026.8,045.3,0.388,723.7,01.20,0.508
2013-09-07 03:51:00,1514E-4,5C000000,-0724,0937,11110,026.8,045.3,0.389,723.7,01.20,0.508
2013-09-07 03:52:00,1323E-4,5C000000,-0724,0938,11147,026.8,045.3,0.388,723.7,01.20,0.508
2013-09-07 03:53:00,9883E-5,5C000000,-0724,0938,11239,026.8,045.3,0.389,723.7,01.20,0.508
2013-09-07 03:54:00,1673E-4,5C000000,-0724,0937,11235,026.8,045.3,0.388,723.7,01.20,0.508
2013-09-07 03:55:00,1441E-4,5C000000,-0724,0938,11031,026.8,045.3,0.388,723.7,01.20,0.508
2013-09-07 03:56:00,1249E-4,5C000000,-0724,0938,11252,026.8,045.3,0.389,723.7,01.20,0.508
2013-09-07 03:57:00,2161E-4,5C000000,-0724,0938,11252,026.8,045.3,0.388,723.7,01.20,0.508
2013-09-07 03:58:00,4572E-5,5C000000,-0724,0937,10989,026.8,045.3,0.389,723.7,01.20,0.508
2013-09-07 03:59:00,1052E-4,5C000000,-0724,0937,11162,026.8,045.3,0.388,723.7,01.20,0.508
2013-09-07 04:00:00,8085E-5,5C000000,-0724,0937,11074,026.8,045.3,0.388,723.7,01.20,0.508
2013-09-07 04:01:00,2619E-4,5C000000,-0724,0938,11064,026.8,045.3,0.389,723.7,01.20,0.508
2013-09-07 04:02:00,1365E-4,5C000000,-0724,0938,11169,026.8,045.3,0.388,723.7,01.20,0.508
2013-09-07 04:03:00,8156E-5,5C000000,-0724,0938,11116,026.8,045.3,0.389,723.7,01.20,0.508
2013-09-07 04:04:00,1411E-4,5C000000,-0724,0938,11147,026.8,045.3,0.388,723.7,01.20,0.508
2013-09-07 04:05:00,2401E-4,5C000000,-0724,0939,11010,026.8,045.3,0.389,723.7,01.20,0.508
2013-09-07 04:06:00,6454E-5,5C000000,-0724,0938,11204,026.8,045.3,0.388,723.7,01.20,0.508
2013-09-07 04:07:00,1125E-4,5C000000,-0724,0937,11085,026.8,045.3,0.389,723.7,01.20,0.508
2013-09-07 04:08:00,1612E-4,5C000000,-0724,0938,11181,026.8,045.3,0.388,723.7,01.20,0.508
2013-09-07 04:09:00,1013E-4,5C000000,-0724,0937,11138,026.8,045.3,0.389,723.7,01.20,0.508
2013-09-07 04:10:00,1316E-4,5C000000,-0724,0937,11180,026.8,045.3,0.388,723.7,01.20,0.508
2013-09-07 04:11:00,1445E-4,5C000000,-0724,0938,11133,026.8,045.3,0.389,723.7,01.20,0.508
2013-09-07 04:12:00,2734E-4,5C000000,-0724,0938,11003,026.8,045.3,0.389,723.7,01.20,0.508
2013-09-07 04:13:00,8517E-5,5C000000,-0724,0938,11190,026.8,045.3,0.389,723.7,01.20,0.508
2013-09-07 04:14:00,1111E-4,5C000000,-0724,0938,11186,026.8,045.3,0.389,723.7,01.20,0.508
2013-09-07 04:15:00,1028E-4,5C000000,-0724,0938,11292,026.8,045.3,0.388,723.7,01.20,0.508
2013-09-07 04:16:00,1273E-4,5C000000,-0724,0937,11088,026.8,045.3,0.389,723.7,01.20,0.508
2013-09-07 04:17:00,1203E-4,5C000000,-0724,0938,11152,026.8,045.3,0.388,723.7,01.20,0.508
2013-09-07 04:18:00,1698E-4,5C000000,-0724,0937,11021,026.8,045.3,0.389,723.7,01.20,0.508
2013-09-07 04:19:00,1173E-4,5C000000,-0724,0937,10955,026.8,045.3,0.389,723.7,01.20,0.508
2013-09-07 04:20:00,1551E-4,5C000000,-0724,0937,11243,026.8,045.3,0.389,723.7,01.20,0.508